Simultaneous Nadir Overpasses (SNOs) Predictions

Prediction of SNOs between FY3D and AQUA Satellite Orbit:

Table of predicted SNOs for the next 14.0 days since TLE Epoch: 4/10/2021
Index Date (FY3D) Time (FY3D) Lat,Lon (FY3D) SZA (FY3D ) Date (AQUA) Time (AQUA) Lat,Lon (AQUA) SZA (AQUA ) Distance(km) Time Diff (sec)
1 04/12/2021 01:31:27 49.87, 11.63 114.38 04/12/2021 01:32:34 50.06, 10.59 114.53 76.93 67
2 04/12/2021 01:58:50 -46.09, -14.91 140.75 04/12/2021 01:59:15 -46.13, -14.52 140.57 30.55 25
3 04/12/2021 02:50:28 49.04, 151.17 41.73 04/12/2021 02:49:36 49.17, 151.92 41.97 56.49 52
4 04/14/2021 18:15:10 -46.10, 101.02 141.61 04/14/2021 18:15:44 -46.17, 101.35 141.42 26.36 34
5 04/14/2021 19:25:35 62.40, 109.70 101.35 04/14/2021 19:24:22 62.55, 108.81 101.61 49.07 73
6 04/17/2021 10:31:29 -46.06,-143.03 142.50 04/17/2021 10:32:11 -46.10,-142.74 142.34 22.26 42
7 04/17/2021 11:46:42 46.03,-143.48 116.06 04/17/2021 11:45:30 46.10,-143.93 116.32 35.37 72
8 04/20/2021 02:47:48 -46.08, -27.10 143.32 04/20/2021 02:48:38 -46.10, -26.86 143.18 18.49 50
9 04/20/2021 04:03:01 46.01, -27.56 115.17 04/20/2021 04:01:57 46.10, -28.05 115.42 39.33 64
10 04/22/2021 19:04:08 -46.11, 88.83 144.12 04/22/2021 19:05:07 -46.16, 89.00 143.95 14.37 59



Historial Predications of SNOs between FY3D and AQUA
